Starlink 31984

operational
NORAD ID: 60018 Int'l Des: 2024-111 Owner: SPXS Country: US Constellation: starlink
LEOCIRCULAR

About Starlink 31984

Description loading...

Live Position

Loading 3D Globe...

Upcoming Passes

Altitude History

Altitude vs Time

uPlot chart will show altitude changes over time

Two-Line Element Set

1 60018U 24111C 25305.29769473 .00000081 00000-0 14862-4 0 9990
2 60018 53.1605 312.1690 0001374 90.8074 269.3084 15.30194458 79224
Epoch: Nov 1, 2025 • Age: 13 hours

Current Status

Altitude 478.7 km
Velocity 7.63 km/s
Sub-Earth Point -12.15°S, 149.42°E
Launch Date Jun 8, 2024
Age 1.3 years
Type internet

Technical Details

Classification Payload
Mass 730.00 kg
Dry Mass 700.00 kg
Total Mass 730.00 kg
Length 0.30 m
Diameter 4.10 m
Span 29.00 m
Shape Box + pan
Manufacturer SPXS
Bus Type Starlink V2M
Phase Status In Orbit
Owner/State SPXS/US

Large Constellations

Loading constellations...